San Antonio International Airport
KSAT : now visible

Airfield :











YOU CAN JOIN US ON...

 
LOGIN :

Register | Disclaimer

   EN    FR    IT 

 









Legend :    VFR   Marginal VFR   IFR   Intensive IFR   Very Intensive IFR
Visi :
Ceiling :
>= 8 km
>= 3000ft
5 to 8 km
1000 to 3000 ft
1500m to 5 km
500 to 1000 ft
800 to 1500m
200 to 500 ft
< 800m
< 200 ft
Symbols :   Thunderstorms  Fog  Heavy snow  Heavy precipitations  Wind > 20 kt






- Airport Elevation : 809 ft
- IATA code : SAT


KSAT - San Antonio International

CURRENT METAR :
  • 200651Z 01017G27KT 10SM FEW025 BKN250 06/M03 A3017 RMK AO2 PK WND 35038/0600 SLP203 T00611033

EXPIRED METARs :
  • 200551Z 36016G28KT 10SM FEW025 BKN250 09/M01 A3014 RMK AO2 PK WND 01030/0459 SLP193 T00891011 10228 20089 402500089 51043

TAF KSAT
Valid from the 20 at 06:00 until the 21 at 12:00 UTC


200537Z 2006/2112 36021G31KT P6SM FEW025 BKN250
FM201500 36018G28KT P6SM -RAPL FEW025 OVC060
FM201800 36016G26KT P6SM RAPL OVC035
FM210300 36006KT P6SM OVC050
KZHU FIR / North America



MET'MAP, your aeronautical weather chart ! - Copyright ORBIFLY December 2007 - Disclaimer

ORBIFLY MET'MAP TEAM :

Programming & Development : Alexandra Zaïnal
Concept & original design : Baudouin d'Aumeries
Assistance for programming : Marc-Olivier Méhu
Technical & hardware support : Manuel Goepfert

Contact : metmap@orbifly.com




SOURCES & CREDITS :

   NOAA       Earth
Advisory